User: anonymous   Login
Location: Berg
(47.2344°N, 9.5296°E)
Time: 06:02:33
(UTC+00:00)
Language:

YUBILEINY - Orbit

View from above orbital plane
View from above orbital plane
View from above satellite
View from above satellite

Ground track
Ground track

The orbit data is extracted from the following two-line orbital elements,

1 32953U 08025A   21338.85185083  .00000021  00000-0  80971-4 0  9994
2 32953  82.5015 304.9505 0019159 328.7959  31.1984 12.43106131614154
Epoch (UTC): 04 December 2021 20:26:39
Eccentricity: 0.0019159
inclination: 82.5015°
perigee height: 1478 km
apogee height: 1508 km
right ascension of ascending node: 304.9505°
argument of perigee: 328.7959°
revolutions per day: 12.43106131
mean anomaly at epoch: 31.1984°
orbit number at epoch: 61415

The dashed part of the orbit path shows where the satellite is in the earth's shadow,  

DLR